Location: Trois-Rivi�res
(46.3500°N, 72.5500°W)
Time: 18:39:56
(UTC-04:00)

Tiangong 2 - Pass Details

Date: 08 October 2017
Orbit: 388 x 391 km, 42.8° (Epoch: 23 October)

Event Time Altitude Azimuth Distance (km) Brightness Sun altitude
Exits shadow 05:50:43 - 205° (SSW) 1,787 4.2 -12.5°
Reaches altitude 10° 05:52:00 10° 190° (S) 1,417 3.8 -12.2°
Maximum altitude 05:53:55 15° 153° (SSE) 1,156 3.8 -11.9°
Drops below altitude 10° 05:55:52 10° 116° (ESE) 1,422 5.0 -11.6°
Sets 05:58:33 0° 92° (E) 2,281 7.2 -11.1°
